G0TRT-13 Weather Reports


Display with metric or nautical units.
time (UTC)temp
F
wind
direction
speed
MPH
gust
MPH
rain 1hr
in
rain 24hr
in
rain mn
in
humidity
%
barometer
mb
20260506233022 43 112 0.0 2.0 0.00 0.00 0.00 80 1015.1
20260506232520 42 112 0.0 2.0 0.00 0.00 0.00 80 1015.0
20260506232018 42 113 0.0 2.0 0.00 0.00 0.00 80 1014.9
20260506231516 42 113 0.0 2.0 0.00 0.00 0.00 81 1015.0
20260506231013 42 114 0.0 1.0 0.00 0.00 0.00 81 1014.9
20260506230511 42 114 0.0 0.0 0.00 0.00 0.00 80 1015.0
20260506230010 42 114 0.0 0.0 0.00 0.00 0.00 80 1014.9
20260506225507 42 114 0.0 0.0 0.00 0.00 0.00 79 1015.0
20260506225006 42 114 0.0 0.0 0.00 0.00 0.00 79 1014.9
20260506224506 42 114 0.0 0.0 0.00 0.00 0.00 78 1015.0
20260506224006 42 114 0.0 0.0 0.00 0.00 0.00 78 1015.0
20260506223504 43 114 0.0 0.0 0.00 0.00 0.00 78 1014.9
20260506222957 43 114 0.0 0.0 0.00 0.00 0.00 77 1014.8
20260506222453 43 114 0.0 0.0 0.00 0.00 0.00 77 1014.8
20260506221953 43 114 0.0 1.0 0.00 0.00 0.00 77 1014.6
20260506221453 44 114 0.0 1.0 0.00 0.00 0.00 77 1014.7
20260506220953 44 114 0.0 0.0 0.00 0.00 0.00 77 1014.6
20260506220450 44 115 0.0 1.0 0.00 0.00 0.00 77 1014.6
20260506215950 44 115 0.0 1.0 0.00 0.00 0.00 77 1014.6
20260506215448 43 115 0.0 1.0 0.00 0.00 0.00 77 1014.6
20260506214947 43 115 0.0 0.0 0.00 0.00 0.00 75 1014.7
20260506214448 44 115 0.0 0.0 0.00 0.00 0.00 75 1014.6
20260506213946 44 115 0.0 0.0 0.00 0.00 0.00 74 1014.6
20260506213443 44 115 0.0 0.0 0.00 0.00 0.00 73 1014.6
20260506212942 45 115 0.0 0.0 0.00 0.00 0.00 72 1014.6
20260506212440 45 115 0.0 0.0 0.00 0.00 0.00 72 1014.7
20260506211937 46 115 0.0 1.0 0.00 0.00 0.00 72 1014.6
20260506211436 46 115 0.0 1.0 0.00 0.00 0.00 72 1014.5
20260506210932 46 115 0.0 1.0 0.00 0.00 0.00 71 1014.6
20260506210431 47 115 0.0 1.0 0.00 0.00 0.00 71 1014.4
20260506205931 47 114 0.0 2.0 0.00 0.00 0.00 71 1014.6
20260506205431 47 114 0.0 2.0 0.00 0.00 0.00 70 1014.4
20260506204937 47 114 0.0 1.0 0.00 0.00 0.00 70 1014.4
20260506204437 47 114 0.0 1.0 0.00 0.00 0.00 70 1014.3
20260506203932 48 114 0.0 0.0 0.00 0.00 0.00 69 1014.2
20260506203424 48 114 0.0 0.0 0.00 0.00 0.00 69 1014.3
20260506202921 48 114 0.0 0.0 0.00 0.00 0.00 69 1014.3
20260506202420 48 114 0.0 2.0 0.00 0.00 0.00 68 1014.1
20260506201918 49 114 0.0 2.0 0.00 0.00 0.00 67 1014.0
20260506201415 49 113 0.0 2.0 0.00 0.00 0.00 67 1013.8
20260506200916 49 114 0.0 2.0 0.00 0.00 0.00 67 1013.8
20260506200413 49 114 0.0 2.0 0.00 0.00 0.00 66 1013.8
20260506195911 50 115 0.0 1.0 0.00 0.00 0.00 66 1013.9
20260506195412 50 115 0.0 1.0 0.00 0.00 0.00 66 1013.9
20260506194911 51 115 0.0 1.0 0.00 0.00 0.00 65 1013.9
20260506194410 51 115 0.0 2.0 0.00 0.00 0.00 65 1013.9
20260506193907 51 115 0.0 2.0 0.00 0.00 0.00 64 1013.8
20260506193406 51 114 0.0 2.0 0.00 0.00 0.00 63 1013.8
20260506192905 52 115 0.0 2.0 0.00 0.00 0.00 62 1013.8
20260506192405 52 115 0.0 2.0 0.00 0.00 0.00 61 1013.8
20260506191903 53 115 0.0 2.0 0.00 0.00 0.00 60 1013.7
20260506191405 53 115 0.0 3.0 0.00 0.00 0.00 59 1013.7
20260506190905 53 116 0.0 4.0 0.00 0.00 0.00 59 1013.6
20260506190406 54 116 0.0 4.0 0.00 0.00 0.00 58 1013.6
20260506185904 54 115 0.0 2.0 0.00 0.00 0.00 59 1013.6
20260506185402 54 115 0.0 2.0 0.00 0.00 0.00 59 1013.6
20260506184903 54 118 0.0 1.0 0.00 0.00 0.00 58 1013.6
20260506183903 54 117 0.0 2.0 0.00 0.00 0.00 57 1013.5
20260506183405 54 114 0.0 1.0 0.00 0.00 0.00 57 1013.6
20260506182902 54 114 0.0 1.0 0.00 0.00 0.00 57 1013.4
20260506182403 55 114 0.0 3.0 0.00 0.00 0.00 57 1013.5
20260506181902 55 114 0.0 3.0 0.00 0.00 0.00 56 1013.4
20260506181403 55 113 0.0 1.0 0.00 0.00 0.00 56 1013.4
20260506180902 55 113 0.0 3.0 0.00 0.00 0.00 56 1013.3
20260506180402 55 113 0.0 3.0 0.00 0.00 0.00 55 1013.3
20260506175901 55 114 0.0 2.0 0.00 0.00 0.00 55 1013.1
20260506175405 55 113 0.0 2.0 0.00 0.00 0.00 56 1013.1
20260506174903 56 113 0.0 2.0 0.00 0.00 0.00 55 1013.0
20260506174403 56 118 0.0 3.0 0.00 0.00 0.00 56 1013.0
20260506173902 56 140 0.0 3.0 0.00 0.00 0.00 55 1013.0
20260506173403 56 214 0.0 1.0 0.00 0.00 0.00 54 1013.0
20260506172857 56 110 0.0 1.0 0.00 0.00 0.00 54 1012.9
20260506172352 56 115 0.0 1.0 0.00 0.00 0.00 55 1013.0
20260506171846 56 134 0.0 1.0 0.00 0.00 0.00 55 1013.0
20260506171344 56 120 0.0 3.0 0.00 0.00 0.00 55 1013.0
20260506170837 56 120 0.0 3.0 0.00 0.00 0.00 55 1012.9
20260506170337 57 122 0.0 4.0 0.00 0.00 0.00 54 1013.0
20260506165836 57 116 0.0 4.0 0.00 0.00 0.00 52 1012.9
20260506165333 57 115 0.0 1.0 0.00 0.00 0.00 53 1013.0
20260506164831 57 192 0.0 1.0 0.00 0.00 0.00 52 1013.0
20260506164332 58 117 0.0 1.0 0.00 0.00 0.00 50 1013.0
20260506163831 58 227 0.0 1.0 0.00 0.00 0.00 51 1012.9
20260506163332 58 228 0.0 2.0 0.00 0.00 0.00 51 1012.9
20260506162831 58 214 0.0 2.0 0.00 0.00 0.00 51 1012.9
20260506162331 58 233 0.0 1.0 0.00 0.00 0.00 50 1012.8
20260506161831 58 141 0.0 1.0 0.00 0.00 0.00 52 1012.9
20260506161331 57 108 0.0 1.0 0.00 0.00 0.00 54 1013.0
20260506160831 57 117 0.0 3.0 0.00 0.00 0.00 53 1012.9
20260506160331 57 117 1.0 4.0 0.00 0.00 0.00 52 1013.0
20260506155835 58 117 1.0 4.0 0.00 0.00 0.00 52 1012.9
20260506155329 58 117 0.0 4.0 0.00 0.00 0.00 52 1012.9
20260506154827 58 144 0.0 3.0 0.00 0.00 0.00 52 1013.0
20260506154328 59 114 0.0 3.0 0.00 0.00 0.00 51 1013.0
20260506153827 59 221 0.0 2.0 0.00 0.00 0.00 51 1013.0
20260506153328 59 221 0.0 3.0 0.00 0.00 0.00 50 1013.0
20260506152826 59 227 0.0 3.0 0.00 0.00 0.00 50 1013.0
20260506152325 60 111 0.0 2.0 0.00 0.00 0.00 51 1013.0
20260506151823 60 114 0.0 1.0 0.00 0.00 0.00 51 1013.1
20260506151322 60 231 0.0 1.0 0.00 0.00 0.00 51 1013.1
20260506150822 60 101 0.0 3.0 0.00 0.00 0.00 50 1013.1
20260506150321 61 77 1.0 3.0 0.00 0.00 0.00 49 1013.1
20260506145821 61 223 0.0 3.0 0.00 0.00 0.00 50 1013.2
20260506145319 61 233 1.0 6.0 0.00 0.00 0.00 48 1013.2
20260506144819 60 226 1.0 6.0 0.00 0.00 0.00 48 1013.2
20260506144320 59 230 0.0 2.0 0.00 0.00 0.00 51 1013.2
20260506143819 59 122 0.0 6.0 0.00 0.00 0.00 51 1013.3
20260506143319 59 103 0.0 6.0 0.00 0.00 0.00 52 1013.3
20260506142820 59 115 0.0 2.0 0.00 0.00 0.00 52 1013.4
20260506142319 58 207 0.0 2.0 0.00 0.00 0.00 54 1013.3
20260506141819 58 131 0.0 7.0 0.00 0.00 0.00 54 1013.4
20260506141319 58 127 1.0 7.0 0.00 0.00 0.00 54 1013.4
20260506140819 58 132 1.0 5.0 0.00 0.00 0.00 51 1013.4
20260506140319 59 231 1.0 3.0 0.00 0.00 0.00 52 1013.4
20260506135819 58 119 0.0 3.0 0.00 0.00 0.00 51 1013.5
20260506135319 58 146 0.0 4.0 0.00 0.00 0.00 52 1013.7
20260506134819 58 143 1.0 4.0 0.00 0.00 0.00 54 1013.6
20260506134319 59 144 1.0 7.0 0.00 0.00 0.00 49 1013.5
20260506133819 60 146 1.0 7.0 0.00 0.00 0.00 48 1013.6
20260506133319 61 233 1.0 4.0 0.00 0.00 0.00 48 1013.5
20260506132820 61 105 1.0 5.0 0.00 0.00 0.00 47 1013.6
20260506132317 62 110 0.0 5.0 0.00 0.00 0.00 49 1013.6
20260506131815 60 231 0.0 3.0 0.00 0.00 0.00 50 1013.5
20260506131315 60 233 1.0 3.0 0.00 0.00 0.00 48 1013.6
20260506130813 60 118 1.0 4.0 0.00 0.00 0.00 47 1013.7
20260506130314 61 226 1.0 4.0 0.00 0.00 0.00 49 1013.8
20260506125813 60 146 1.0 4.0 0.00 0.00 0.00 49 1013.7
20260506125310 60 226 1.0 4.0 0.00 0.00 0.00 48 1013.7
20260506124810 60 120 1.0 6.0 0.00 0.00 0.00 48 1013.7
20260506124309 60 107 1.0 6.0 0.00 0.00 0.00 51 1013.6
20260506123809 59 220 1.0 5.0 0.00 0.00 0.00 50 1013.6
20260506123309 60 118 1.0 5.0 0.00 0.00 0.00 46 1013.6
20260506122807 60 114 0.0 5.0 0.00 0.00 0.00 47 1013.6
20260506122307 60 116 0.0 3.0 0.00 0.00 0.00 48 1013.7
20260506121805 60 219 1.0 3.0 0.00 0.00 0.00 47 1013.7
20260506121303 59 116 1.0 5.0 0.00 0.00 0.00 51 1013.7
20260506120802 58 117 2.0 6.0 0.00 0.00 0.00 50 1013.8
20260506120301 58 118 1.0 6.0 0.00 0.00 0.00 50 1013.8
20260506115755 59 122 1.0 5.0 0.00 0.00 0.00 50 1013.9
20260506115248 58 115 1.0 7.0 0.00 0.00 0.00 50 1013.9
20260506114743 58 115 1.0 7.0 0.00 0.00 0.00 47 1013.9
20260506114242 58 116 1.0 6.0 0.00 0.00 0.00 48 1014.0
20260506113743 57 117 1.0 6.0 0.00 0.00 0.00 50 1014.0
20260506113243 58 119 1.0 6.0 0.00 0.00 0.00 49 1013.9
20260506112742 58 113 1.0 7.0 0.00 0.00 0.00 52 1013.9
20260506112240 58 139 1.0 7.0 0.00 0.00 0.00 52 1013.9
20260506111741 58 110 1.0 4.0 0.00 0.00 0.00 54 1013.9
20260506111240 57 113 1.0 4.0 0.00 0.00 0.00 53 1014.0
20260506110741 57 109 1.0 6.0 0.00 0.00 0.00 54 1013.9
20260506110239 57 116 1.0 6.0 0.00 0.00 0.00 54 1014.0
20260506105737 56 118 1.0 5.0 0.00 0.00 0.00 54 1014.0
20260506105237 56 188 2.0 5.0 0.00 0.00 0.00 57 1014.0
20260506104737 56 110 1.0 5.0 0.00 0.00 0.00 54 1014.0
20260506104236 57 226 1.0 6.0 0.00 0.00 0.00 58 1013.9
20260506103734 56 224 1.0 6.0 0.00 0.00 0.00 60 1013.9
20260506103236 56 219 1.0 3.0 0.00 0.00 0.00 60 1013.8
20260506102733 56 218 1.0 3.0 0.00 0.00 0.00 61 1013.8
20260506102233 56 142 1.0 4.0 0.00 0.00 0.00 62 1013.8
20260506101732 56 111 0.0 4.0 0.00 0.00 0.00 60 1013.8
20260506101230 55 209 0.0 3.0 0.00 0.00 0.00 61 1013.8
20260506100725 55 211 1.0 5.0 0.00 0.00 0.00 61 1013.8
20260506100222 55 122 1.0 5.0 0.00 0.00 0.00 63 1013.9
20260506095721 55 288 1.0 4.0 0.00 0.00 0.00 62 1013.9
20260506095221 55 293 1.0 5.0 0.00 0.00 0.00 64 1013.7
20260506094720 54 293 1.0 5.0 0.00 0.00 0.00 63 1013.8
20260506094218 54 301 1.0 5.0 0.00 0.00 0.00 64 1013.8
20260506093719 54 298 1.0 4.0 0.00 0.00 0.00 66 1013.8
20260506093219 53 297 0.0 4.0 0.00 0.00 0.00 66 1013.8
20260506092716 53 297 0.0 3.0 0.00 0.00 0.00 65 1013.7
20260506092217 53 296 0.0 3.0 0.00 0.00 0.00 66 1013.8
20260506091717 52 291 0.0 3.0 0.00 0.00 0.00 68 1013.9
20260506091215 51 298 1.0 3.0 0.00 0.00 0.00 67 1013.7
20260506090712 51 297 1.0 3.0 0.00 0.00 0.00 66 1013.8
20260506090211 51 297 1.0 4.0 0.00 0.00 0.00 67 1013.9
20260506085709 51 293 1.0 4.0 0.00 0.00 0.00 68 1013.8
20260506085207 51 293 1.0 3.0 0.00 0.00 0.00 70 1013.8
20260506084703 51 297 1.0 3.0 0.00 0.00 0.00 70 1013.8
20260506084202 51 297 0.0 3.0 0.00 0.00 0.00 70 1013.8
20260506083703 51 297 0.0 5.0 0.00 0.00 0.00 72 1013.7
20260506083202 50 58 1.0 5.0 0.00 0.00 0.00 71 1013.9
20260506082703 50 302 0.0 5.0 0.00 0.00 0.00 71 1013.9
20260506082159 50 299 0.0 3.0 0.00 0.00 0.00 72 1013.8
20260506081652 50 292 0.0 3.0 0.00 0.00 0.00 74 1013.8
20260506081146 49 304 0.0 3.0 0.00 0.00 0.00 74 1013.8
20260506080646 48 294 0.0 4.0 0.00 0.00 0.00 74 1013.8
20260506080147 48 289 0.0 4.0 0.00 0.00 0.00 75 1013.7
20260506073137 47 295 0.0 2.0 0.00 0.00 0.00 77 1013.6
20260506072637 47 291 0.0 2.0 0.00 0.00 0.00 78 1013.6
20260506072138 47 290 0.0 3.0 0.00 0.00 0.00 78 1013.6
20260506071635 47 297 0.0 3.0 0.00 0.00 0.00 78 1013.7
20260506071135 47 297 0.0 2.0 0.00 0.00 0.00 79 1013.6
20260506070634 47 290 0.0 4.0 0.00 0.00 0.00 80 1013.7
20260506070134 46 295 0.0 4.0 0.00 0.00 0.00 80 1013.4
20260506062127 46 295 0.0 3.0 0.00 0.00 0.00 81 1013.3
20260506061624 46 291 0.0 2.0 0.00 0.00 0.00 81 1013.2
20260506061125 46 296 0.0 2.0 0.00 0.00 0.00 81 1013.3
20260506060625 46 301 0.0 2.0 0.00 0.00 0.00 81 1013.2
20260506060125 46 294 0.0 2.0 0.00 0.00 0.00 81 1013.3
20260506051114 46 293 0.0 2.0 0.00 0.00 0.00 82 1013.0
20260506050627 46 292 0.0 3.0 0.00 0.00 0.00 82 1013.0
20260506050119 46 292 0.0 3.0 0.00 0.00 0.00 82 1013.0
20260506045114 46 297 0.0 2.0 0.00 0.00 0.00 82 1013.0
20260506044614 46 295 0.0 2.0 0.00 0.00 0.00 82 1012.9
20260506044115 46 296 0.0 3.0 0.00 0.00 0.00 82 1012.9
20260506043614 46 293 0.0 3.0 0.00 0.00 0.00 81 1012.9
20260506043114 47 302 0.0 3.0 0.00 0.00 0.00 81 1012.9
20260506042614 47 300 0.0 3.0 0.00 0.00 0.00 81 1012.9
20260506042114 47 300 0.0 3.0 0.00 0.00 0.00 81 1012.9
20260506041613 47 296 0.0 3.0 0.00 0.00 0.00 81 1012.8
20260506041116 47 299 1.0 6.0 0.00 0.00 0.00 80 1012.7
20260506040617 47 298 1.0 6.0 0.00 0.00 0.00 80 1012.9
20260506040114 47 299 1.0 5.0 0.00 0.00 0.00 80 1013.0
20260506035614 47 297 1.0 5.0 0.00 0.00 0.00 80 1012.9
20260506035114 47 300 1.0 3.0 0.00 0.00 0.00 80 1012.9
20260506034612 47 299 0.0 4.0 0.00 0.00 0.00 80 1012.8
20260506034110 47 296 1.0 4.0 0.00 0.00 0.00 80 1012.8
20260506033610 47 298 0.0 2.0 0.00 0.00 0.00 80 1012.8
20260506033106 47 297 0.0 3.0 0.00 0.00 0.00 80 1012.8
20260506032607 47 297 1.0 4.0 0.00 0.00 0.00 80 1012.8
20260506032105 47 297 1.0 4.0 0.00 0.00 0.00 80 1012.9
20260506031604 47 301 0.0 4.0 0.00 0.00 0.00 80 1012.9
20260506031105 47 299 0.0 4.0 0.00 0.00 0.00 80 1012.9
20260506030604 47 297 0.0 2.0 0.00 0.00 0.00 80 1012.9
20260506030104 47 297 0.0 4.0 0.00 0.00 0.00 81 1013.0
20260506025603 48 292 1.0 4.0 0.00 0.00 0.00 81 1012.9
20260506025104 48 300 0.0 4.0 0.00 0.00 0.00 81 1013.0
20260506024604 48 295 0.0 3.0 0.00 0.00 0.00 82 1012.9
20260506024107 48 296 0.0 3.0 0.00 0.00 0.00 82 1013.0
20260506023606 48 296 0.0 3.0 0.00 0.00 0.00 82 1013.0
20260506023102 48 295 0.0 3.0 0.00 0.00 0.00 82 1012.9
20260506022558 48 296 0.0 3.0 0.00 0.00 0.00 82 1013.0
20260506022056 49 295 0.0 1.0 0.00 0.00 0.00 82 1013.0
20260506021557 49 295 0.0 2.0 0.00 0.00 0.00 81 1013.0
20260506021049 49 295 0.0 2.0 0.00 0.00 0.00 81 1013.0
20260506020546 49 297 0.0 3.0 0.00 0.00 0.00 81 1013.0
20260506020044 49 297 1.0 3.0 0.00 0.00 0.00 81 1013.0
20260506015544 49 298 1.0 3.0 0.00 0.00 0.00 81 1013.0
20260506015042 49 297 0.0 3.0 0.00 0.00 0.00 81 1012.9
20260506014539 49 296 0.0 1.0 0.00 0.00 0.00 81 1012.9
20260506014038 49 295 0.0 1.0 0.00 0.00 0.00 81 1012.9
20260506013536 49 295 0.0 1.0 0.00 0.00 0.00 81 1012.9
20260506013034 49 295 0.0 3.0 0.00 0.00 0.00 80 1012.9
20260506012533 49 297 0.0 3.0 0.00 0.00 0.00 80 1013.0
20260506012034 49 296 0.0 4.0 0.00 0.00 0.00 80 1013.0
20260506011531 49 297 1.0 4.0 0.00 0.00 0.00 80 1013.1
20260506011030 49 297 1.0 4.0 0.00 0.00 0.00 80 1013.0
20260506010531 49 295 1.0 4.0 0.00 0.00 0.00 80 1013.1
20260506010032 49 298 1.0 5.0 0.00 0.00 0.00 79 1013.0
20260506005530 49 295 1.0 5.0 0.00 0.00 0.00 79 1013.0
20260506005030 49 294 0.0 3.0 0.00 0.00 0.00 79 1012.9
20260506004530 49 295 0.0 3.0 0.00 0.00 0.00 79 1013.0
20260506004029 49 292 0.0 1.0 0.00 0.00 0.00 79 1013.0
20260506003524 49 293 0.0 1.0 0.00 0.00 0.00 79 1013.0
20260506003018 49 294 0.0 1.0 0.00 0.00 0.00 80 1013.0
20260506002517 49 293 0.0 1.0 0.00 0.00 0.00 80 1012.9
20260506002017 50 293 0.0 1.0 0.00 0.00 0.00 80 1013.0
20260506001514 50 292 0.0 0.0 0.00 0.00 0.00 80 1012.9
20260506001011 50 290 0.0 1.0 0.00 0.00 0.00 80 1012.9
20260506000512 50 290 0.0 1.0 0.00 0.00 0.00 79 1012.9
20260506000011 50 292 0.0 1.0 0.00 0.00 0.00 79 1012.9
20260505235509 50 292 0.0 1.0 0.00 0.00 0.00 79 1012.8
20260505235007 50 293 0.0 1.0 0.00 0.00 0.00 79 1012.7
20260505234507 50 293 0.0 1.0 0.00 0.00 0.00 79 1012.7
20260505234007 50 291 0.0 1.0 0.00 0.00 0.00 79 1012.8
20260505233507 50 291 0.0 1.0 0.00 0.00 0.00 79 1012.8